Location: Newark
(48.0000°N, 67.0000°E)
Time: 14:10:44
(UTC+00:00)

A-11 Canister half - Pass Details

Date: 22 February 2020
Orbit: 1517 x 1683 km, 47.2° (Epoch: 31 March)

Event Time Altitude Azimuth Distance (km) Brightness Sun altitude
Rises 15:59:01 0° 283° (WNW) 4,849 12.8 -29.6°
Reaches altitude 10° 16:02:11 10° 282° (WNW) 3,840 12.0 -30.1°
Maximum altitude 16:11:52 72° 200° (SSW) 1,638 9.0 -31.6°
Enters shadow 16:13:26 62° 149° (SSE) 1,727 8.9 -31.9°
